sat.trackr.live / text

‹ back to catalog

CSS (WENTIAN)

NORAD 53239 · 2022-085A

PAYLOAD ACTIVE UNKNOWN

§ Identity

Operator
Country
PRC
Launch date
2022-07-24
Launch site
WSC
Launch vehicle
Mass (kg)
RCS (m²)

Purposes: station

External: N2YO · Heavens-Above · Gunter

§ Orbital elements

Epoch: 2026-09-20T00:37:39.425664Z

Period
92.30 min
Inclination
41.4678°
Eccentricity
0.0002596
Mean motion
15.60120079 rev/d
Perigee alt
385.6 km
Apogee alt
389.1 km
Semi-major
6,765.4 km
B*
1.9476e-4
RAAN
106.1628°
Arg perigee
292.3466°
Mean anomaly
67.7098°
Rev number
28,823

§ Raw data

CSS (WENTIAN)1 53239U 22085A   26263.02615076  .00015971  00000+0  19476-3 0  99972 53239  41.4678 106.1628 0002596 292.3466  67.7098 15.60120079288233

JSON: /api/v1/satellites/53239 · /tle

For live sub-satellite position, see the globe view (requires WebGL).

§ Visibility from observer

Set your observer location to see the next 7 days of passes ≥ 10°. The values pass through the URL so the page stays shareable.

No JS? Fill the form by hand. The geolocation button needs JavaScript.